Time,TemperatureF,DewpointF,PressureIn,WindDirection,WindDirectionDegrees,WindSpeedMPH,WindSpeedGustMPH,Humidity,HourlyPrecipIn,Conditions,Clouds,dailyrainin,SoftwareType,DateUTC
2014-01-02 00:00:00,24.0,-99.9,-100.00,NW,309,13.0,19.0,-999,-99.99,,,-99.99,,2014-01-02 07:00:00,
2014-01-02 00:42:00,24.0,-99.9,-100.00,NW,309,13.0,19.0,-999,-99.99,,,-99.99,,2014-01-02 07:42:00,
2014-01-02 00:52:00,24.0,-99.9,-100.00,NW,309,13.0,19.0,-999,-99.99,,,-99.99,,2014-01-02 07:52:00,
2014-01-02 01:00:00,25.0,-99.9,-100.00,NNW,338,11.0,18.0,-999,-99.99,,,-99.99,,2014-01-02 08:00:00,
2014-01-02 01:42:00,25.0,-99.9,-100.00,NNW,338,11.0,18.0,-999,-99.99,,,-99.99,,2014-01-02 08:42:00,
2014-01-02 01:53:00,25.0,-99.9,-100.00,NNW,338,11.0,18.0,-999,-99.99,,,-99.99,,2014-01-02 08:53:00,
2014-01-02 02:00:00,22.0,-99.9,-100.00,North,359,7.0,11.0,-999,-99.99,,,-99.99,,2014-01-02 09:00:00,
2014-01-02 02:43:00,22.0,-99.9,-100.00,North,359,7.0,11.0,-999,-99.99,,,-99.99,,2014-01-02 09:43:00,
2014-01-02 02:53:00,22.0,-99.9,-100.00,North,359,7.0,11.0,-999,-99.99,,,-99.99,,2014-01-02 09:53:00,
2014-01-02 03:00:00,19.0,-99.9,-100.00,NNE,22,1.0,4.0,-999,-99.99,,,-99.99,,2014-01-02 10:00:00,
2014-01-02 03:43:00,19.0,-99.9,-100.00,NNE,22,1.0,4.0,-999,-99.99,,,-99.99,,2014-01-02 10:43:00,
2014-01-02 03:53:00,19.0,-99.9,-100.00,NNE,22,1.0,4.0,-999,-99.99,,,-99.99,,2014-01-02 10:53:00,
2014-01-02 04:00:00,19.0,-99.9,-100.00,West,277,1.0,4.0,-999,-99.99,,,-99.99,,2014-01-02 11:00:00,
2014-01-02 04:42:00,19.0,-99.9,-100.00,West,277,1.0,4.0,-999,-99.99,,,-99.99,,2014-01-02 11:42:00,
2014-01-02 04:53:00,19.0,-99.9,-100.00,West,277,1.0,4.0,-999,-99.99,,,-99.99,,2014-01-02 11:53:00,
2014-01-02 05:00:00,23.0,-99.9,-100.00,NNE,27,3.0,5.0,-999,-99.99,,,-99.99,,2014-01-02 12:00:00,
2014-01-02 05:42:00,23.0,-99.9,-100.00,NNE,27,3.0,5.0,-999,-99.99,,,-99.99,,2014-01-02 12:42:00,
2014-01-02 05:52:00,23.0,-99.9,-100.00,NNE,27,3.0,5.0,-999,-99.99,,,-99.99,,2014-01-02 12:52:00,
2014-01-02 06:00:00,19.0,-99.9,-100.00,North,3,7.0,8.0,-999,-99.99,,,-99.99,,2014-01-02 13:00:00,
2014-01-02 06:42:00,19.0,-99.9,-100.00,North,3,7.0,8.0,-999,-99.99,,,-99.99,,2014-01-02 13:42:00,
2014-01-02 06:52:00,19.0,-99.9,-100.00,North,3,7.0,8.0,-999,-99.99,,,-99.99,,2014-01-02 13:52:00,
2014-01-02 07:00:00,17.0,-99.9,-100.00,ENE,57,4.0,6.0,-999,-99.99,,,-99.99,,2014-01-02 14:00:00,
2014-01-02 07:42:00,17.0,-99.9,-100.00,ENE,57,4.0,6.0,-999,-99.99,,,-99.99,,2014-01-02 14:42:00,
2014-01-02 07:53:00,17.0,-99.9,-100.00,ENE,57,4.0,6.0,-999,-99.99,,,-99.99,,2014-01-02 14:53:00,
2014-01-02 09:00:00,24.0,-99.9,-100.00,NNE,31,8.0,17.0,-999,-99.99,,,-99.99,,2014-01-02 16:00:00,
2014-01-02 09:43:00,24.0,-99.9,-100.00,NNE,31,8.0,17.0,-999,-99.99,,,-99.99,,2014-01-02 16:43:00,
2014-01-02 09:53:00,24.0,-99.9,-100.00,NNE,31,8.0,17.0,-999,-99.99,,,-99.99,,2014-01-02 16:53:00,
2014-01-02 14:00:00,40.0,-99.9,-100.00,West,264,27.0,34.0,-999,-99.99,,,-99.99,,2014-01-02 21:00:00,
2014-01-02 14:44:00,40.0,-99.9,-100.00,West,264,27.0,34.0,-999,-99.99,,,-99.99,,2014-01-02 21:44:00,
2014-01-02 14:53:00,40.0,-99.9,-100.00,West,264,27.0,34.0,-999,-99.99,,,-99.99,,2014-01-02 21:53:00,
2014-01-02 15:00:00,41.0,-99.9,-100.00,WNW,282,35.0,49.0,-999,-99.99,,,-99.99,,2014-01-02 22:00:00,
2014-01-02 15:43:00,41.0,-99.9,-100.00,WNW,282,35.0,49.0,-999,-99.99,,,-99.99,,2014-01-02 22:43:00,
2014-01-02 15:53:00,41.0,-99.9,-100.00,WNW,282,35.0,49.0,-999,-99.99,,,-99.99,,2014-01-02 22:53:00,
2014-01-02 16:00:00,41.0,-99.9,-100.00,WNW,292,32.0,50.0,-999,-99.99,,,-99.99,,2014-01-02 23:00:00,
2014-01-02 16:43:00,41.0,-99.9,-100.00,WNW,292,32.0,50.0,-999,-99.99,,,-99.99,,2014-01-02 23:43:00,
2014-01-02 16:53:00,41.0,-99.9,-100.00,WNW,292,32.0,50.0,-999,-99.99,,,-99.99,,2014-01-02 23:53:00,